CZ-6A DEB, 56593

Orbit data source: Space-Track

CZ-6A DEB, 56593 is space debris in SSO originally from a launch on Fri, 11 Nov 2022 UTC launched from the Taiyaun Space Center, China (TSC). Debris objects in space refer to the collection of defunct objects orbiting the Earth. Examples of debris include non-operational satellites, rocket bodies, and fragments generated from explosions, collisions, or faulty payload assembly.

Loading next visibility...
Identifier
56593, 2022-151ADR
Orbit
SSO
Country
Flag of CNCN / PRC
Related business
Manufacturer
SAST
Mission
Spacecraft
Bus & Motor
Unknown
Mass
Unknown
Launch date (UTC)
2022-11-11 (3 years ago)
Launch vehicle
Unknown
Launch site
Taiyaun Space Center, China (TSC)
Object type
Payload
Rocket body
Debris
Shape & HBR
Unknown shape, 0.1 m
Radar Cross Section
Small (<0.1 m²)

Expand to show TLE details & history
Last TLE update: 1 day ago

TLE from 1 day ago
0 CZ-6A DEB
1 56593U 22151ADR 25349.84754855  .00001010  00000-0  29954-3 0  9992
2 56593  98.6782  26.9899 0119730 206.2305 153.2789 14.41556593139126
Epoch: 2025-12-15T20:20Z
TLE epoch observation values (Epoch: 2025-12-15T20:20:28.194Z)
Latitude
0.00001°
Longitude
-2.86781°
Altitude
832.791 km
Speed
7.397 km/s
True Right ascension
01h 47m 57s
True Declination
0° 00' 00"
Sunlit
Object was in full shadow at epoch
Visualization orbit readout
Latitude
Unknown
Longitude
Unknown
Altitude
Unknown
Speed
Unknown
Apparent Right ascension
Unknown
Apparent Declination
Unknown
Sunlit
N/A
Visualization observer readout
Local Sidereal Time
21:34:49
Azimuth
Unknown
Elevation
Unknown
Doppler factor
Unknown
Orbital elements
Apogee altitude
835.839 km
Perigee altitude
665.137 km
Semi-major axis
7,128.625 km
Eccentricity
0.01197
Inclination
98.6782°
RAAN
26.9899°
Arg. of periapsis
206.2305°
True anomaly
153.88767°
Mean anomaly
153.2789°
Eccentric anomaly
153.58409°
Mean motion
3.60607 °/min
Orbital period
99.83 mins
BSTAR
0.00029954
Loading maneuver chart data...
Computing Atmospheric mass density...
Loading historical data...
Loading historical data...
Loading historical data...
Loading historical data...
Loading historical data...
Loading historical data...
Loading historical data...

Documentation

Showing up to 5 results
|